Location: La Fredeussais
(48.1780°N, 1.3980°W)
Time: 09:05:27
(UTC+00:00)

STARLINK-2673 - Pass Details

Date: 30 July 2021
Orbit: 546 x 548 km, 53.0° (Epoch: 19 September)

Event Time Altitude Azimuth Distance (km) Brightness Sun altitude
Rises 21:20:45 0° 289° (WNW) 2,718 8.3 -13.3°
Reaches altitude 10° 21:23:39 10° 267° (W) 1,820 6.8 -13.6°
Maximum altitude 21:26:14 16° 229° (SW) 1,462 5.8 -13.9°
Enters shadow 21:28:36 11° 192° (SSW) 1,762 5.8 -14.2°
